"Pseudo-MPEC" for P11JB60

Created 2023 Sep 19 11:22:23 UT using Find_Orb

Click here for an explanation of pseudo-MPECs

 
 Astrometry: 
     P11JB60  C2023 09 11=AbUFqUICWyY_24YAstrometry='1_:[U.,R\f`g.Wbp2.BA2?xeF51
     P11JB60  C2023 09 11R7QfpoG[.ap=Iredacted;#p_i0QhhTQDvccNN;fY[6((r7Ch.GEF51
     P11JB60* C2023 09 15$,i53@W!B1,@ao]6wRW38_;dP9-_`R=lu,Yc[8Og367phI(y\u9RF51
     P11JB60  C2023 09 159ikF(+yFwN,WjJl]S3pi$fJGi,FL'_$A)IAeTte+IrmB.PuvAB!0F51
     P11JB60  C2023 09 15OH\0a:+D=M0qGu#JGsi(HXI72jY4.67sw+$BIQRtS'Q#OKAr-j7eF51
     P11JB60  C2023 09 15m(w7aekJ!(Cyh!u7S'1`.c=7490A]!click`P)7gD#XHX;kW]G,tF51
     P11JB60  C2023 09 153_:vW3jpC1-xK]'c$@7Nx,t0iA=uP5L%F9oq][$[`=I@CC1KB=yRF51
     P11JB60  C2023 09 15,@HIox^$++TVUiZ6Pv-Sq*w(V?FUK,Ps0EL6*Pu5H)E#s%n#VUV'F51
     P11JB60 3C2023 09 16`S/L/KQp!KGwpQ'E@*Nea!D/$Te[[KhEAo.lF$nq^;HTF*S@h(+OT14
     P11JB60 3C2023 09 16))9.^here$CsO1pMb'Q0xj%!xK_Rk'ZPV=4oKrMHEZdL:7iABStfT14
     P11JB60 3C2023 09 16YOe*h=PoQ%nnOt@vfYVP_KA(F=\@*;ooy7fO,q02?$a9E=j1vF;\T14
     P11JB60  C2023 09 19K\dryl];,;SrD`iTL/3gX*lC[m^qrt5jforM6]1Qy=FRjkl3yrB2F52
     P11JB60  C2023 09 19_yDDEg%l%veSeU'!ll-Ec-RSxDgx=cdVb/explanationbPYTVU?F52
     P11JB60  C2023 09 19/uOjvA\]AksSiqtAh^,EoybEY=Uh6ece/:aFw(FhUS2LN-;fm:@bF52

Station data:
(F51) Pan-STARRS 1, Haleakala  (N20.707234 W156.255910)  US/Hawaii.
   Observers J. Bulger, T. Lowe, A. Schultz, M. Willman. Measurers K.
   Chambers, S. Chastel, T. de Boer, L. Denneau, J. Fairlamb, H. Flewelling,
   M. Huber, C.-C. Lin, E. Magnier, Y. Ramanjooloo, R. Wainscoat, R. Weryk.
   1.8-m Ritchey-Chrétien + CCD.
(F52) Pan-STARRS 2, Haleakala  (N20.707382 W156.255910)  US/Hawaii.
   Observers J. Bulger, T. Dukes, T. Lowe, A. Schultz, M. Willman. Measurers
   K. Chambers, S. Chastel, T. de Boer, L. Denneau, J. Fairlamb, H.
   Flewelling, M. Huber, C.-C. Lin, E. Magnier, Y. Ramanjooloo, R. Wainscoat,
   R. Weryk. 1.8-m Ritchey-Chrétien + CCD.
(T14) Mauna Kea-UH/Tholen NEO Follow-Up (CFHT)  (N19.825252 W155.468876)
   US/Hawaii.  Observer R. Weryk. 3.6-m Canada-France-Hawaii Telescope.

Orbital elements:  P11JB60
   Perihelion 2023 Oct 27.84933 +/- 0.0193 TT = 20:23:02 (JD 2460245.34933)
Epoch 2023 Sep 19.0 TT = JDT 2460206.5   Earth MOID: 0.0981      AutoNEOCP
M 340.33852477 +/- 0.07             (J2000 ecliptic)
n   0.50609561 +/- 0.00175          Peri.   31.54619 +/- 0.015
a   1.55948428 +/- 0.00359          Node     2.11438 +/- 0.0012
e   0.3131471 +/- 0.00141           Incl.   13.35410 +/- 0.043
P   1.95/711.31d           H 24.87  G  0.15   U  8.5
q 1.07113617 +/- 0.000262    Q 2.04783238 +/- 0.00693
From 14 observations 2023 Sept. 11-19; mean residual 0".10
Residuals in arcseconds: 
230911 F51  .17+  .25-    230915 F51  .03-  .19+    230916 T14  .00   .02-    
230911 F51  .12-  .26+    230915 F51  .06+  .11+    230919 F52  .03-  .00     
230915 F51  .15+  .03+    230915 F51  .02-  .06-    230919 F52  .09+  .00     
230915 F51  .10-  .05-    230916 T14  .02-  .01+    230919 F52  .04+  .04+    
230915 F51  .02+  .07-    230916 T14  .04-  .02-    

Ephemerides (geocentric):
Date (UTC) HH   RA             Dec           delta  r     elong  mag " sig PA
---- --------  ------------   ------------  ------ ------ -----  --- --------
2023 09 19 11  00 10 03.594   -13 05 28.42  .12568 1.1275 167.0 21.3 .160 140
2023 09 19 12  00 09 59.023   -13 01 30.41  .12554 1.1274 167.0 21.3 .159 139
2023 09 19 13  00 09 54.443   -12 57 31.83  .12540 1.1273 167.1 21.3 .159 138
2023 09 19 14  00 09 49.854   -12 53 32.67  .12526 1.1271 167.2 21.3 .159 137
2023 09 19 15  00 09 45.256   -12 49 32.93  .12513 1.1270 167.2 21.3 .159 136
2023 09 19 16  00 09 40.648   -12 45 32.62  .12499 1.1269 167.3 21.3 .159 135
2023 09 19 17  00 09 36.031   -12 41 31.72  .12485 1.1268 167.4 21.3 .159 134
2023 09 19 18  00 09 31.405   -12 37 30.24  .12472 1.1267 167.5 21.3 .159 133
2023 09 19 19  00 09 26.770   -12 33 28.18  .12458 1.1266 167.5 21.3 .158 132
2023 09 19 20  00 09 22.126   -12 29 25.54  .12445 1.1264 167.6 21.3 .158 131
2023 09 19 21  00 09 17.472   -12 25 22.31  .12431 1.1263 167.7 21.3 .158 130
2023 09 19 22  00 09 12.810   -12 21 18.50  .12418 1.1262 167.7 21.3 .158 129
2023 09 19 23  00 09 08.138   -12 17 14.11  .12404 1.1261 167.8 21.3 .158 128
2023 09 20 00  00 09 03.457   -12 13 09.14  .12391 1.1260 167.9 21.3 .157 127
2023 09 20 01  00 08 58.767   -12 09 03.58  .12377 1.1259 168.0 21.3 .157 126
2023 09 20 02  00 08 54.067   -12 04 57.43  .12364 1.1258 168.0 21.3 .157 124
2023 09 20 03  00 08 49.359   -12 00 50.70  .12351 1.1256 168.1 21.3 .157 123
2023 09 20 04  00 08 44.642   -11 56 43.39  .12337 1.1255 168.2 21.3 .157 122
2023 09 20 05  00 08 39.915   -11 52 35.48  .12324 1.1254 168.2 21.2 .156 121
2023 09 20 06  00 08 35.179   -11 48 26.99  .12311 1.1253 168.3 21.2 .156 119
2023 09 20 07  00 08 30.435   -11 44 17.92  .12298 1.1252 168.4 21.2 .156 118
2023 09 20 08  00 08 25.681   -11 40 08.25  .12284 1.1251 168.5 21.2 .156 117
2023 09 20 09  00 08 20.918   -11 35 58.00  .12271 1.1250 168.5 21.2 .156 116
2023 09 20 10  00 08 16.146   -11 31 47.16  .12258 1.1248 168.6 21.2 .156 114
2023 09 20 11  00 08 11.365   -11 27 35.73  .12245 1.1247 168.7 21.2 .156 113
2023 09 20 12  00 08 06.575   -11 23 23.71  .12232 1.1246 168.8 21.2 .156 111
2023 09 20 13  00 08 01.775   -11 19 11.10  .12219 1.1245 168.8 21.2 .156 110
2023 09 20 14  00 07 56.967   -11 14 57.90  .12206 1.1244 168.9 21.2 .156 108
2023 09 20 15  00 07 52.150   -11 10 44.10  .12193 1.1243 169.0 21.2 .156 107
2023 09 20 16  00 07 47.323   -11 06 29.72  .12180 1.1242 169.0 21.2 .156 105
2023 09 20 17  00 07 42.488   -11 02 14.75  .12167 1.1241 169.1 21.2 .156 104
2023 09 20 18  00 07 37.644   -10 57 59.18  .12154 1.1239 169.2 21.2 .157 102
2023 09 20 19  00 07 32.790   -10 53 43.02  .12141 1.1238 169.3 21.2 .157 101
2023 09 20 20  00 07 27.928   -10 49 26.27  .12128 1.1237 169.3 21.2 .157  99
2023 09 20 21  00 07 23.056   -10 45 08.93  .12115 1.1236 169.4 21.2 .158  97
2023 09 20 22  00 07 18.176   -10 40 51.00  .12103 1.1235 169.5 21.2 .159  96
2023 09 20 23  00 07 13.286   -10 36 32.47  .12090 1.1234 169.6 21.2 .159  94
2023 09 21 00  00 07 08.388   -10 32 13.34  .12077 1.1233 169.6 21.2 .160  92
2023 09 21 01  00 07 03.480   -10 27 53.62  .12064 1.1232 169.7 21.1 .161  91
2023 09 21 02  00 06 58.564   -10 23 33.31  .12052 1.1230 169.8 21.1 .162  89
2023 09 21 03  00 06 53.639   -10 19 12.41  .12039 1.1229 169.9 21.1 .163  87
2023 09 21 04  00 06 48.704   -10 14 50.91  .12026 1.1228 169.9 21.1 .164  85
2023 09 21 05  00 06 43.761   -10 10 28.81  .12014 1.1227 170.0 21.1 .166  84
2023 09 21 06  00 06 38.809   -10 06 06.12  .12001 1.1226 170.1 21.1 .167  82
2023 09 21 07  00 06 33.848   -10 01 42.83  .11989 1.1225 170.2 21.1 .169  80
2023 09 21 08  00 06 28.877   -09 57 18.95  .11976 1.1224 170.2 21.1 .171  78
2023 09 21 09  00 06 23.898   -09 52 54.47  .11964 1.1223 170.3 21.1 .173  77
2023 09 21 10  00 06 18.910   -09 48 29.39  .11952 1.1221 170.4 21.1 .175  75